This is the latest recevied weather packets stored in our database for station/object KB9PMA-1. If no packets are shown the sender has not sent any weather packets the latest 10 day(s).
| Time | Temp. | Humidity | Pressure | Rain* | Wind** | Luminosity | Snow |
|---|---|---|---|---|---|---|---|
| 1777904280 | 17.22° C | 68% | 1007.6 hPa | 0 mm | - | - | - |
| 1777903680 | 16.67° C | 70% | 1007.9 hPa | 0 mm | - | - | - |
| 1777903380 | 16.67° C | 69% | 1007.9 hPa | 0 mm | - | - | - |
| 1777903080 | 16.11° C | 69% | 1008 hPa | 0 mm | - | - | - |
| 1777902780 | 16.11° C | 70% | 1008 hPa | 0 mm | - | - | - |
| 1777902480 | 15.56° C | 71% | 1008.1 hPa | 0 mm | - | - | - |
| 1777902180 | 15.56° C | 71% | 1008.2 hPa | 0 mm | - | - | - |
| 1777901880 | 15.56° C | 71% | 1008.3 hPa | 0 mm | - | - | - |
| 1777901580 | 15° C | 71% | 1008.3 hPa | 0 mm | - | - | - |
| 1777901280 | 15° C | 72% | 1008.3 hPa | 0 mm | - | - | - |
| 1777900980 | 14.44° C | 70% | 1008.3 hPa | 0 mm | - | - | - |
| 1777900680 | 14.44° C | 72% | 1008.2 hPa | 0 mm | - | - | - |
| 1777900380 | 14.44° C | 73% | 1008.2 hPa | 0 mm | - | - | - |
| 1777900080 | 14.44° C | 75% | 1008.2 hPa | 0 mm | - | - | - |
| 1777899780 | 13.89° C | 74% | 1008.2 hPa | 0 mm | - | - | - |
| 1777899480 | 13.89° C | 76% | 1008.3 hPa | 0 mm | - | - | - |
| 1777899180 | 13.33° C | 75% | 1008.4 hPa | 0 mm | - | - | - |
| 1777898880 | 13.33° C | 75% | 1008.5 hPa | 0 mm | - | - | - |
| 1777898580 | 12.78° C | 76% | 1008.6 hPa | 0 mm | - | - | - |
| 1777898280 | 12.78° C | 78% | 1008.6 hPa | 0 mm | - | - | - |
| 1777897980 | 12.22° C | 78% | 1008.6 hPa | 0 mm | - | - | - |
| 1777897680 | 12.22° C | 78% | 1008.6 hPa | 0 mm | - | - | - |
| 1777897380 | 12.22° C | 78% | 1008.5 hPa | 0 mm | - | - | - |
| 1777897080 | 11.67° C | 79% | 1008.5 hPa | 0 mm | - | - | - |
| 1777896780 | 11.67° C | 79% | 1008.4 hPa | 0 mm | - | - | - |
* Rain latest hour (hover to see other rain measurements)
** Current wind speed in m/s (hover to see current wind gust speed)